Location: Limerick
(52.6650°N, 8.6230°W)
Time: 17:16:05
(UTC+00:00)

ISS - Pass Details

Date: 20 May 2017
Orbit: 403 x 406 km, 51.6° (Epoch: 15 December)

Event Time Altitude Azimuth Distance (km) Brightness Sun altitude
Rises 04:23:22 0° 276° (W) 2,362 -0.3 -8.3°
Reaches altitude 10° 04:25:29 10° 273° (W) 1,494 -1.3 -8.1°
Maximum altitude 04:28:48 62° 193° (SSW) 469 -3.8 -7.7°
Drops below altitude 10° 04:32:05 10° 111° (ESE) 1,479 -0.7 -7.4°
Sets 04:34:10 0° 108° (ESE) 2,335 0.4 -7.2°
